Location: *
(50.0228°S, 177.2688°W)
Time: 01:00:25
(UTC+00:00)

Cosmos 1626 - Pass Details

Date: 07 April 2020
Orbit: 492 x 494 km, 82.5° (Epoch: 30 May)

Event Time Altitude Azimuth Distance (km) Brightness Sun altitude
Rises 06:32:33 0° 24° (NNE) 2,588 5.5 -12.0°
Reaches altitude 10° 06:34:56 10° 38° (NE) 1,714 4.4 -12.4°
Maximum altitude 06:37:56 23° 91° (E) 1,120 3.3 -12.9°
Drops below altitude 10° 06:40:58 10° 144° (SE) 1,735 4.6 -13.4°
Sets 06:43:24 0° 158° (SSE) 2,629 5.6 -13.8°
